This is the latest recevied weather packets stored in our database for station/object SR1WXZ. If no packets are shown the sender has not sent any weather packets the latest 1 day(s).
| Time | Temp. | Humidity | Pressure | Rain* | Wind** | Luminosity | Snow |
|---|---|---|---|---|---|---|---|
| 1778089721 | 7.78° C | 93% | 1008 hPa | - | 3.13 m/s, 10° | - | - |
| 1778086843 | 10° C | 93% | 1007 hPa | - | 2.68 m/s, 360° | - | - |
| 1778085944 | 10° C | 93% | 1007 hPa | - | 2.68 m/s, 360° | - | - |
| 1778084920 | 10° C | 93% | 1007 hPa | - | 3.58 m/s, 20° | - | - |
| 1778083718 | 10° C | 93% | 1007 hPa | - | 3.13 m/s, 360° | - | - |
| 1778083244 | 10° C | 93% | 1007 hPa | - | 3.13 m/s, 360° | - | - |
| 1778082344 | 10° C | 93% | 1007 hPa | - | 3.13 m/s, 360° | - | - |
| 1778081320 | 10° C | 93% | 1007 hPa | - | 3.13 m/s, 350° | - | - |
| 1778079643 | 10° C | 93% | 1007 hPa | - | 3.13 m/s, 360° | - | - |
| 1778077726 | 10° C | 100% | 1007 hPa | - | 3.13 m/s, 360° | - | - |
| 1778074119 | 10° C | 93% | 1007 hPa | - | 2.68 m/s, 10° | - | - |
| 1778071544 | 10° C | 93% | 1007 hPa | - | 3.13 m/s, 360° | - | - |
| 1778070519 | 8.89° C | 100% | 1006 hPa | - | 3.58 m/s, 10° | - | - |
| 1778067043 | 8.89° C | 100% | 1006 hPa | - | 3.58 m/s, 10° | - | - |
| 1778066920 | 8.89° C | 100% | 1006 hPa | - | 3.58 m/s, 10° | - | - |
| 1778065718 | 10° C | 93% | 1006 hPa | - | 4.02 m/s, 360° | - | - |
| 1778064520 | 10° C | 93% | 1006 hPa | - | 4.02 m/s, 360° | - | - |
| 1778063319 | 10° C | 93% | 1006 hPa | - | 2.68 m/s, 10° | - | - |
| 1778062117 | 10° C | 93% | 1006 hPa | - | 3.13 m/s, 20° | - | - |
| 1778061643 | 10° C | 93% | 1006 hPa | - | 3.13 m/s, 20° | - | - |
| 1778060745 | 10° C | 93% | 1006 hPa | - | 3.13 m/s, 20° | - | - |
| 1778059842 | 10° C | 93% | 1006 hPa | - | 4.02 m/s, 10° | - | - |
| 1778058518 | 10° C | 100% | 1006 hPa | - | 3.58 m/s, 20° | - | - |
| 1778058044 | 10° C | 100% | 1006 hPa | - | 3.58 m/s, 20° | - | - |
| 1778057144 | 10° C | 100% | 1006 hPa | - | 3.58 m/s, 20° | - | - |
* Rain since midnight (hover to see other rain measurements)
** Current wind speed in m/s (hover to see current wind gust speed)